Location: Middelsbur
(53.6609°N, 7.5020°E)
Time: 00:26:28
(UTC+00:00)

Cosmos 1825 - Pass Details

Date: 06 July 2020
Orbit: 503 x 508 km, 82.5° (Epoch: 03 August)

Event Time Altitude Azimuth Distance (km) Brightness Sun altitude
Exits shadow 23:14:37 13° 223° (SW) 1,533 4.2 -13.7°
Maximum altitude 23:17:39 37° 288° (WNW) 807 3.3 -13.7°
Drops below altitude 10° 23:21:13 10° 358° (N) 1,741 6.3 -13.7°
Sets 23:23:29 0° 6° (N) 2,632 7.6 -13.7°
